EAG5519 SBCX-SBSP

Flight info

Callsign EAG5519
Flight time 1h 7m
Altitude 39000
Route ANLER UM540 ANISE
Aircraft A20N/M-SDE2E3FGHIRWXY/LB1

Departure

Time 2026-04-19 23:57
Airport Hugo Cantergiani Regional Airport (SBCX)

Arrival

Time 2026-04-20 01:04
Airport Congonhas–Deputado Freitas Nobre Airport (SBSP)
Time Latitude Longitude Altitude Speed Heading
2026-04-19 23:45 -29.19521 -51.18743 2459 ft 0 kts 45°
2026-04-19 23:49 -29.19536 -51.18761 2462 ft 2 kts 53°
2026-04-19 23:49 -29.19541 -51.18770 2460 ft 1 kts 85°
2026-04-19 23:49 -29.19542 -51.18777 2463 ft 1 kts 110°
2026-04-19 23:49 -29.19538 -51.18785 2465 ft 1 kts 128°
2026-04-19 23:50 -29.19533 -51.18792 2465 ft 1 kts 133°
2026-04-19 23:50 -29.19527 -51.18799 2467 ft 1 kts 135°
2026-04-19 23:50 -29.19522 -51.18805 2465 ft 0 kts 136°
2026-04-19 23:52 -29.19531 -51.18795 2465 ft 4 kts 141°
2026-04-19 23:52 -29.19570 -51.18796 2467 ft 7 kts 201°
2026-04-19 23:53 -29.19588 -51.18811 2462 ft 1 kts 216°
2026-04-19 23:53 -29.19601 -51.18821 2467 ft 5 kts 216°
2026-04-19 23:53 -29.19613 -51.18865 2462 ft 8 kts 288°
2026-04-19 23:53 -29.19571 -51.18923 2464 ft 11 kts 317°
2026-04-19 23:54 -29.19503 -51.18997 2464 ft 16 kts 316°
2026-04-19 23:54 -29.19415 -51.19095 2462 ft 19 kts 316°
2026-04-19 23:54 -29.19315 -51.19203 2470 ft 20 kts 317°
2026-04-19 23:54 -29.19212 -51.19316 2464 ft 21 kts 316°
2026-04-19 23:55 -29.19140 -51.19384 2469 ft 3 kts 322°
2026-04-19 23:55 -29.19133 -51.19413 2468 ft 6 kts 286°
2026-04-19 23:55 -29.19118 -51.19448 2468 ft 3 kts 354°
2026-04-19 23:55 -29.19114 -51.19432 2468 ft 2 kts 102°
2026-04-19 23:56 -29.19129 -51.19412 2467 ft 6 kts 128°
2026-04-19 23:56 -29.19257 -51.19270 2464 ft 62 kts 134°
2026-04-19 23:56 -29.19758 -51.18715 2472 ft 137 kts 136°
2026-04-19 23:56 -29.20522 -51.17874 2991 ft 152 kts 135°
2026-04-19 23:57 -29.21305 -51.17040 3819 ft 155 kts 137°
2026-04-19 23:57 -29.22109 -51.16200 4514 ft 162 kts 137°
2026-04-19 23:57 -29.22977 -51.15258 5002 ft 182 kts 136°
2026-04-19 23:57 -29.23918 -51.14207 5493 ft 201 kts 136°
2026-04-19 23:58 -29.24958 -51.13023 5972 ft 221 kts 136°
2026-04-19 23:58 -29.26091 -51.11719 6363 ft 242 kts 135°
2026-04-19 23:58 -29.27251 -51.10199 6792 ft 266 kts 121°
2026-04-19 23:58 -29.27795 -51.08118 7378 ft 283 kts 93°
2026-04-19 23:59 -29.27439 -51.05891 8195 ft 290 kts 66°
2026-04-19 23:59 -29.26250 -51.04011 9035 ft 297 kts 44°
2026-04-19 23:59 -29.24718 -51.02394 9903 ft 302 kts 45°
2026-04-19 23:59 -29.23337 -51.00559 10604 ft 309 kts 55°
2026-04-20 00:00 -29.22174 -50.98393 10947 ft 331 kts 63°
2026-04-20 00:00 -29.21174 -50.95914 11076 ft 353 kts 69°
2026-04-20 00:00 -29.20270 -50.93276 11099 ft 356 kts 70°
2026-04-20 00:00 -29.19414 -50.90622 11107 ft 355 kts 71°
2026-04-20 00:01 -29.18564 -50.87966 11111 ft 356 kts 71°
2026-04-20 00:01 -29.17707 -50.85317 11110 ft 356 kts 71°
2026-04-20 00:01 -29.15967 -50.80012 11129 ft 356 kts 71°
2026-04-20 00:02 -29.15086 -50.77345 11111 ft 359 kts 71°
2026-04-20 00:02 -29.14209 -50.74694 11110 ft 355 kts 71°
2026-04-20 00:02 -29.13369 -50.72039 11115 ft 354 kts 77°
2026-04-20 00:02 -29.13168 -50.69262 11114 ft 350 kts 98°
2026-04-20 00:03 -29.13850 -50.66621 11118 ft 345 kts 119°
2026-04-20 00:03 -29.14991 -50.64206 11119 ft 345 kts 121°
2026-04-20 00:03 -29.16173 -50.61817 11122 ft 345 kts 122°
2026-04-20 00:03 -29.17350 -50.59426 11118 ft 345 kts 121°
2026-04-20 00:04 -29.18503 -50.56997 11412 ft 350 kts 120°
2026-04-20 00:04 -29.19643 -50.54537 12261 ft 350 kts 120°
2026-04-20 00:04 -29.20784 -50.52061 13021 ft 354 kts 121°
2026-04-20 00:04 -29.21938 -50.49557 13770 ft 358 kts 121°
2026-04-20 00:05 -29.23111 -50.47011 14436 ft 363 kts 121°
2026-04-20 00:05 -29.24298 -50.44436 15069 ft 368 kts 121°
2026-04-20 00:05 -29.25451 -50.41809 15705 ft 374 kts 114°
2026-04-20 00:05 -29.26025 -50.38870 16323 ft 385 kts 96°
2026-04-20 00:06 -29.25769 -50.35786 16912 ft 396 kts 77°
2026-04-20 00:06 -29.24690 -50.32865 17492 ft 404 kts 59°
2026-04-20 00:06 -29.22878 -50.30391 18102 ft 409 kts 41°
2026-04-20 00:06 -29.20594 -50.28429 18673 ft 413 kts 33°
2026-04-20 00:07 -29.18178 -50.26635 19236 ft 416 kts 32°
2026-04-20 00:07 -29.15750 -50.24799 19774 ft 420 kts 33°
2026-04-20 00:07 -29.13345 -50.22886 20335 ft 423 kts 34°
2026-04-20 00:07 -29.10948 -50.20904 20886 ft 427 kts 35°
2026-04-20 00:08 -29.08550 -50.18879 21413 ft 430 kts 36°
2026-04-20 00:08 -29.06138 -50.16825 21936 ft 434 kts 36°
2026-04-20 00:08 -29.03707 -50.14751 22481 ft 438 kts 36°
2026-04-20 00:08 -29.01288 -50.12689 22991 ft 442 kts 35°
2026-04-20 00:09 -28.98815 -50.10583 23525 ft 445 kts 35°
2026-04-20 00:09 -28.96323 -50.08465 23977 ft 449 kts 35°
2026-04-20 00:09 -28.93811 -50.06332 24440 ft 451 kts 35°
2026-04-20 00:09 -28.91286 -50.04190 24930 ft 453 kts 35°
2026-04-20 00:10 -28.88750 -50.02040 25399 ft 456 kts 35°
2026-04-20 00:10 -28.86194 -49.99875 25850 ft 458 kts 35°
2026-04-20 00:10 -28.83631 -49.97706 26306 ft 461 kts 35°
2026-04-20 00:10 -28.81047 -49.95519 26726 ft 464 kts 35°
2026-04-20 00:11 -28.78449 -49.93322 27168 ft 466 kts 35°
2026-04-20 00:11 -28.75844 -49.91120 27635 ft 468 kts 35°
2026-04-20 00:11 -28.73218 -49.88903 28046 ft 471 kts 35°
2026-04-20 00:11 -28.70584 -49.86679 28437 ft 474 kts 35°
2026-04-20 00:12 -28.67928 -49.84439 28835 ft 476 kts 35°
2026-04-20 00:12 -28.65264 -49.82191 29216 ft 478 kts 35°
2026-04-20 00:12 -28.62590 -49.79935 29576 ft 480 kts 35°
2026-04-20 00:12 -28.59899 -49.77667 29921 ft 482 kts 35°
2026-04-20 00:13 -28.57197 -49.75389 30270 ft 484 kts 35°
2026-04-20 00:13 -28.54482 -49.73104 30554 ft 487 kts 35°
2026-04-20 00:13 -28.51750 -49.70806 30842 ft 489 kts 36°
2026-04-20 00:13 -28.49007 -49.68500 31145 ft 492 kts 35°
2026-04-20 00:14 -28.46257 -49.66190 31490 ft 492 kts 36°
2026-04-20 00:14 -28.43495 -49.63872 31866 ft 492 kts 36°
2026-04-20 00:14 -28.40748 -49.61568 32257 ft 492 kts 36°
2026-04-20 00:14 -28.37996 -49.59262 32628 ft 491 kts 36°
2026-04-20 00:15 -28.35243 -49.56957 32996 ft 491 kts 36°
2026-04-20 00:15 -28.32501 -49.54662 33378 ft 490 kts 36°
2026-04-20 00:15 -28.29756 -49.52366 33721 ft 490 kts 36°
2026-04-20 00:15 -28.27010 -49.50072 34061 ft 489 kts 36°
2026-04-20 00:16 -28.24275 -49.47787 34371 ft 489 kts 36°
2026-04-20 00:16 -28.21530 -49.45496 34615 ft 490 kts 36°
2026-04-20 00:16 -28.18786 -49.43206 34868 ft 490 kts 36°
2026-04-20 00:16 -28.16042 -49.40919 35105 ft 490 kts 36°
2026-04-20 00:17 -28.13289 -49.38626 35340 ft 491 kts 36°
2026-04-20 00:17 -28.10539 -49.36337 35571 ft 491 kts 36°
2026-04-20 00:17 -28.07777 -49.34037 35782 ft 492 kts 36°
2026-04-20 00:17 -28.05032 -49.31715 36000 ft 493 kts 36°
2026-04-20 00:18 -28.02300 -49.29381 36232 ft 493 kts 36°
2026-04-20 00:18 -27.99595 -49.27069 36434 ft 494 kts 36°
2026-04-20 00:18 -27.96816 -49.24699 36652 ft 494 kts 36°
2026-04-20 00:18 -27.94069 -49.22362 36863 ft 494 kts 36°
2026-04-20 00:19 -27.91355 -49.20056 37064 ft 495 kts 36°
2026-04-20 00:19 -27.88603 -49.17720 37259 ft 495 kts 36°
2026-04-20 00:19 -27.85798 -49.15383 37457 ft 495 kts 35°
2026-04-20 00:19 -27.82986 -49.13127 37645 ft 495 kts 34°
2026-04-20 00:20 -27.80168 -49.10889 37834 ft 496 kts 34°
2026-04-20 00:20 -27.77389 -49.08679 38025 ft 495 kts 34°
2026-04-20 00:20 -27.74572 -49.06430 38179 ft 496 kts 34°
2026-04-20 00:20 -27.71754 -49.04175 38362 ft 496 kts 34°
2026-04-20 00:21 -27.68950 -49.01926 38544 ft 496 kts 35°
2026-04-20 00:21 -27.66155 -48.99641 38710 ft 496 kts 35°
2026-04-20 00:21 -27.63372 -48.97344 38844 ft 496 kts 36°
2026-04-20 00:21 -27.60595 -48.95051 38998 ft 495 kts 35°
2026-04-20 00:22 -27.57819 -48.92760 39087 ft 494 kts 35°
2026-04-20 00:22 -27.52285 -48.88201 39098 ft 492 kts 35°
2026-04-20 00:23 -27.46753 -48.83657 39086 ft 492 kts 35°
2026-04-20 00:23 -27.41229 -48.79127 39086 ft 491 kts 35°
2026-04-20 00:24 -27.35703 -48.74601 39088 ft 491 kts 35°
2026-04-20 00:24 -27.30170 -48.70075 39086 ft 492 kts 35°
2026-04-20 00:25 -27.24640 -48.65550 39087 ft 492 kts 36°
2026-04-20 00:25 -27.19168 -48.60935 39082 ft 492 kts 37°
2026-04-20 00:26 -27.13663 -48.56389 39065 ft 490 kts 35°
2026-04-20 00:26 -27.08122 -48.51928 39059 ft 490 kts 35°
2026-04-20 00:27 -27.02583 -48.47469 39060 ft 490 kts 35°
2026-04-20 00:27 -26.97052 -48.43012 39058 ft 489 kts 35°
2026-04-20 00:28 -26.91523 -48.38557 39059 ft 489 kts 35°
2026-04-20 00:28 -26.85992 -48.34108 39064 ft 489 kts 35°
2026-04-20 00:29 -26.80467 -48.29669 39067 ft 489 kts 35°
2026-04-20 00:29 -26.74976 -48.25262 39067 ft 489 kts 35°
2026-04-20 00:30 -26.69454 -48.20832 39070 ft 488 kts 35°
2026-04-20 00:30 -26.63941 -48.16391 39068 ft 488 kts 35°
2026-04-20 00:31 -26.58428 -48.11954 39070 ft 488 kts 35°
2026-04-20 00:31 -26.52925 -48.07533 39068 ft 488 kts 35°
2026-04-20 00:32 -26.47410 -48.03110 39071 ft 487 kts 35°
2026-04-20 00:32 -26.41903 -47.98697 39070 ft 487 kts 35°
2026-04-20 00:33 -26.36402 -47.94295 39068 ft 487 kts 35°
2026-04-20 00:33 -26.30898 -47.89894 39061 ft 486 kts 35°
2026-04-20 00:34 -26.25402 -47.85505 39064 ft 486 kts 35°
2026-04-20 00:34 -26.19907 -47.81123 39066 ft 486 kts 35°
2026-04-20 00:35 -26.14412 -47.76745 39065 ft 485 kts 35°
2026-04-20 00:35 -26.08880 -47.72345 39066 ft 492 kts 35°
2026-04-20 00:36 -26.03273 -47.67890 39062 ft 498 kts 35°
2026-04-20 00:36 -25.98561 -47.64149 39064 ft 502 kts 35°
2026-04-20 00:37 -25.92874 -47.59640 39064 ft 502 kts 35°
2026-04-20 00:37 -25.87199 -47.55146 39063 ft 501 kts 35°
2026-04-20 00:38 -25.81512 -47.50648 39057 ft 501 kts 35°
2026-04-20 00:38 -25.75832 -47.46162 39057 ft 501 kts 35°
2026-04-20 00:39 -25.70155 -47.41683 39060 ft 501 kts 35°
2026-04-20 00:39 -25.64477 -47.37208 39060 ft 501 kts 35°
2026-04-20 00:40 -25.58801 -47.32740 39058 ft 500 kts 35°
2026-04-20 00:40 -25.53127 -47.28279 39055 ft 500 kts 35°
2026-04-20 00:41 -25.47459 -47.23828 39056 ft 500 kts 35°
2026-04-20 00:41 -25.41784 -47.19377 39056 ft 500 kts 35°
2026-04-20 00:42 -25.36118 -47.14938 39015 ft 498 kts 35°
2026-04-20 00:42 -25.33302 -47.12733 38711 ft 496 kts 35°
2026-04-20 00:42 -25.30486 -47.10531 38023 ft 496 kts 35°
2026-04-20 00:42 -25.27660 -47.08322 37107 ft 499 kts 35°
2026-04-20 00:43 -25.24821 -47.06104 36176 ft 501 kts 35°
2026-04-20 00:43 -25.21975 -47.03881 35295 ft 502 kts 35°
2026-04-20 00:43 -25.19112 -47.01647 34436 ft 503 kts 35°
2026-04-20 00:43 -25.16256 -46.99419 33484 ft 504 kts 35°
2026-04-20 00:44 -25.13344 -46.97254 32454 ft 505 kts 30°
2026-04-20 00:44 -25.10314 -46.95273 31521 ft 506 kts 30°
2026-04-20 00:44 -25.07293 -46.93294 31032 ft 509 kts 30°
2026-04-20 00:44 -25.04248 -46.91296 30512 ft 508 kts 30°
2026-04-20 00:45 -25.01242 -46.89323 30081 ft 499 kts 30°
2026-04-20 00:45 -24.98271 -46.87375 29386 ft 494 kts 30°
2026-04-20 00:45 -24.95325 -46.85446 28780 ft 488 kts 30°
2026-04-20 00:45 -24.92422 -46.83546 28252 ft 485 kts 30°
2026-04-20 00:46 -24.89520 -46.81648 27716 ft 485 kts 30°
2026-04-20 00:46 -24.86619 -46.79752 27179 ft 483 kts 30°
2026-04-20 00:46 -24.83742 -46.77872 26644 ft 479 kts 30°
2026-04-20 00:46 -24.80889 -46.76008 26117 ft 475 kts 30°
2026-04-20 00:47 -24.78055 -46.74159 25573 ft 473 kts 30°
2026-04-20 00:47 -24.75187 -46.72288 25092 ft 489 kts 30°
2026-04-20 00:47 -24.72222 -46.70355 24930 ft 496 kts 30°
2026-04-20 00:47 -24.69259 -46.68424 24575 ft 495 kts 30°
2026-04-20 00:48 -24.66292 -46.66491 23770 ft 497 kts 31°
2026-04-20 00:48 -24.63292 -46.64556 22621 ft 503 kts 28°
2026-04-20 00:48 -24.60074 -46.63061 21836 ft 503 kts 16°
2026-04-20 00:48 -24.56667 -46.62302 21350 ft 498 kts
2026-04-20 00:49 -24.53217 -46.62187 21049 ft 495 kts 358°
2026-04-20 00:49 -24.49775 -46.62295 20503 ft 496 kts 356°
2026-04-20 00:49 -24.46343 -46.62423 19954 ft 490 kts 357°
2026-04-20 00:49 -24.42953 -46.62509 19357 ft 484 kts 358°
2026-04-20 00:50 -24.39592 -46.62554 18796 ft 480 kts 359°
2026-04-20 00:50 -24.36264 -46.62574 18200 ft 477 kts 359°
2026-04-20 00:50 -24.32963 -46.62579 17655 ft 473 kts 359°
2026-04-20 00:50 -24.29674 -46.62580 17107 ft 472 kts 359°
2026-04-20 00:51 -24.26309 -46.62580 16545 ft 469 kts 359°
2026-04-20 00:51 -24.23153 -46.62580 16014 ft 465 kts 359°
2026-04-20 00:51 -24.19906 -46.62582 15465 ft 461 kts 359°
2026-04-20 00:51 -24.16695 -46.62583 14919 ft 457 kts 359°
2026-04-20 00:52 -24.13530 -46.62406 14494 ft 454 kts
2026-04-20 00:52 -24.10396 -46.61946 14148 ft 456 kts
2026-04-20 00:52 -24.07244 -46.62031 13707 ft 450 kts 351°
2026-04-20 00:52 -24.04221 -46.62816 13046 ft 443 kts 341°
2026-04-20 00:53 -24.01365 -46.63899 12656 ft 423 kts 338°
2026-04-20 00:53 -23.98715 -46.65008 12346 ft 397 kts 337°
2026-04-20 00:53 -23.96184 -46.66097 11685 ft 386 kts 337°
2026-04-20 00:53 -23.93704 -46.67163 10880 ft 380 kts 337°
2026-04-20 00:54 -23.91280 -46.68197 10446 ft 364 kts 337°
2026-04-20 00:54 -23.88983 -46.69169 10252 ft 343 kts 337°
2026-04-20 00:54 -23.86838 -46.70073 10083 ft 323 kts 337°
2026-04-20 00:54 -23.84791 -46.70933 9737 ft 310 kts 337°
2026-04-20 00:55 -23.82793 -46.71774 9146 ft 308 kts 337°
2026-04-20 00:55 -23.80799 -46.72614 8532 ft 306 kts 337°
2026-04-20 00:55 -23.78821 -46.73447 7948 ft 304 kts 337°
2026-04-20 00:55 -23.76883 -46.74261 7391 ft 301 kts 337°
2026-04-20 00:56 -23.74922 -46.75083 6818 ft 300 kts 337°
2026-04-20 00:56 -23.72990 -46.75894 6397 ft 292 kts 337°
2026-04-20 00:56 -23.71144 -46.76668 6154 ft 278 kts 337°
2026-04-20 00:56 -23.69399 -46.77400 6041 ft 260 kts 337°
2026-04-20 00:57 -23.67687 -46.78119 5927 ft 271 kts 337°
2026-04-20 00:57 -23.66174 -46.78755 5822 ft 267 kts 338°
2026-04-20 00:57 -23.64444 -46.79481 5708 ft 267 kts 338°
2026-04-20 00:57 -23.62709 -46.80208 5588 ft 269 kts 338°
2026-04-20 00:58 -23.60862 -46.80983 5491 ft 292 kts 338°
2026-04-20 00:58 -23.59005 -46.81757 5480 ft 272 kts 339°
2026-04-20 00:58 -23.57219 -46.82040 5371 ft 253 kts
2026-04-20 00:58 -23.55631 -46.81409 5095 ft 240 kts 39°
2026-04-20 00:59 -23.54552 -46.80087 4783 ft 227 kts 61°
2026-04-20 00:59 -23.53800 -46.78649 4641 ft 209 kts 65°
2026-04-20 00:59 -23.53118 -46.77252 4655 ft 210 kts 65°
2026-04-20 00:59 -23.52448 -46.75962 4640 ft 181 kts 64°
2026-04-20 01:00 -23.51892 -46.74839 4635 ft 160 kts 77°
2026-04-20 01:00 -23.51889 -46.73708 4648 ft 140 kts 115°
2026-04-20 01:00 -23.52402 -46.72862 4647 ft 137 kts 139°
2026-04-20 01:00 -23.53188 -46.72193 4583 ft 145 kts 150°
2026-04-20 01:01 -23.54046 -46.71627 4418 ft 144 kts 151°
2026-04-20 01:01 -23.54885 -46.71043 4240 ft 142 kts 149°
2026-04-20 01:01 -23.55709 -46.70474 4065 ft 138 kts 149°
2026-04-20 01:01 -23.56519 -46.69911 3937 ft 138 kts 148°
2026-04-20 01:02 -23.57325 -46.69352 3768 ft 138 kts 148°
2026-04-20 01:02 -23.58141 -46.68785 3592 ft 138 kts 148°
2026-04-20 01:02 -23.58954 -46.68221 3410 ft 138 kts 148°
2026-04-20 01:02 -23.59768 -46.67656 3186 ft 139 kts 148°
2026-04-20 01:03 -23.60576 -46.67094 2966 ft 136 kts 148°
2026-04-20 01:03 -23.61379 -46.66534 2762 ft 137 kts 148°
2026-04-20 01:03 -23.62185 -46.65981 2620 ft 137 kts 148°
2026-04-20 01:03 -23.62908 -46.65480 2615 ft 100 kts 147°
2026-04-20 01:04 -23.63274 -46.65226 2622 ft 17 kts 148°
2026-04-20 01:04 -23.63394 -46.65228 2611 ft 10 kts 221°
2026-04-20 01:04 -23.63406 -46.65266 2606 ft 7 kts 289°
2026-04-20 01:04 -23.63371 -46.65298 2605 ft 6 kts 332°
2026-04-20 01:05 -23.63317 -46.65336 2605 ft 12 kts 326°
2026-04-20 01:05 -23.63228 -46.65401 2605 ft 15 kts 327°
2026-04-20 01:05 -23.63131 -46.65468 2604 ft 17 kts 329°
2026-04-20 01:05 -23.63013 -46.65524 2605 ft 20 kts 343°
2026-04-20 01:06 -23.62929 -46.65573 2606 ft 15 kts 326°
2026-04-20 01:06 -23.62830 -46.65638 2605 ft 19 kts 331°
2026-04-20 01:06 -23.62719 -46.65718 2604 ft 21 kts 327°
2026-04-20 01:06 -23.62620 -46.65786 2603 ft 14 kts 327°
2026-04-20 01:07 -23.62598 -46.65827 2602 ft 6 kts 216°
2026-04-20 01:07 -23.62602 -46.65831 2602 ft 2 kts 224°
2026-04-20 01:07 -23.62610 -46.65844 2602 ft 5 kts 235°
2026-04-20 01:07 -23.62630 -46.65876 2601 ft 6 kts 237°
2026-04-20 01:08 -23.62634 -46.65883 2601 ft 0 kts 238°